Hourly Data Report for December 29, 2011

HALIFAX STANFIELD INT'L A
NOVA SCOTIA

44°52'48.060" N
63°30'00.050" W
145.40 m
8202250
71395
YHZ

Download Data

Hourly Data (December 2011)
Hourly Data Report for December 29, 2011
TIME
LST
Temp Definition
°C
Dew Point Definition
°C
Rel Hum Definition
%
Precip. Amount Definition
mm

Wind Dir Definition
10's deg

Wind Spd Definition
km/h
Visibility Definition
km
Stn Press Definition
kPa
Hmdx Definition


Wind Chill Definition


Weather Definition


00:00 4.1 3.4 95   23 28 24.1 96.88     Cloudy
01:00 2.5 0.3 85   25 26 24.1 96.91     Mainly Clear
02:00 1.5 -0.4 87   23 28 24.1 96.96     Mainly Clear
03:00 1.4 -1.0 84   23 28 24.1 97.00     Cloudy
04:00 0.1 -1.7 88   25 28 16.1 97.05     Snow Showers
05:00 -1.0 -5.1 74   25 30 24.1 97.09   -8 Snow Showers
06:00 -3.2 -7.7 71   25 41 24.1 97.22   -12 Snow Showers
07:00 -4.0 -8.9 69   25 32 24.1 97.34   -12 Snow Showers
08:00 -4.2 -8.5 72   25 33 24.1 97.45   -12 Snow Showers
09:00 -4.0 -8.6 70   25 33 24.1 97.53   -12 Snow Showers
10:00 -3.8 -7.9 73   25 30 24.1 97.62   -11 Snow Showers
11:00 -3.8 -8.4 70   25 28 24.1 97.63   -11 Snow Showers
12:00 -3.6 -8.6 68   24 33 24.1 97.59   -12 Snow Showers
13:00 -2.9 -8.9 63   25 44 24.1 97.62   -12 Snow Showers
14:00 -2.8 -10.0 58   26 33 24.1 97.67   -10 Mainly Clear
15:00 -2.5 -10.3 55   25 41 24.1 97.81   -11 Mainly Clear
16:00 -2.7 -10.6 55   25 35 24.1 97.92   -11 Mainly Clear
17:00 -3.3 -12.3 50   25 28 24.1 98.05   -11 Mainly Clear
18:00 -3.8 -12.4 51   25 32 24.1 98.18   -12 Clear
19:00 -4.0 -12.6 51   24 30 24.1 98.30   -12 Clear
20:00 -3.8 -12.4 51   24 41 24.1 98.36   -13 Clear
21:00 -3.8 -12.3 52   25 37 24.1 98.45   -12 Clear
22:00 -3.8 -12.7 50   24 37 24.1 98.52   -12 Clear
23:00 -4.2 -12.6 52   25 35 24.1 98.62   -13 Clear

Notes on Data Quality.

Legend

  • E = Estimated
  • M = Missing
  • NA = Not Available*
  • [empty] = Indicates an unobserved value
Date modified: